[[{"header":{"parameterUnit":"m.s-1","parameterCategory":1,"la1":30.2991,"la2":30.254,"lo1":-89.0895,"lo2":-89.0444,"dy":0.0017,"dx":0.0017,"nx":28,"ny":28,"refTime":"2023-07-29T03:00:00:Z","depth":0,"parameterNumber":2,"parameterNumberName":"U-component_of_WINDS"},"data":[0,0,0,0,0,0,0,0,0,0,0,0,0,0,0,0,0,0,0,0,0,0,0,0,0,0,0,0,0,0,0,0,0,0,0,0,0,0,0,0,0,0,0,0,0,0,0,0,0,0,0,0,0,0,0,0,0,0,1.0679,1.0681,0,1.0841,1.0843,1.0844,1.09,1.0899,1.0899,1.0898,1.1063,1.1068,1.1073,0,0,0,0,0,0,0,0,0,0,0,0,0,1.0418,1.0422,1.0679,1.0681,1.0683,1.084,1.0843,1.0845,1.09,1.0899,1.0899,1.0898,1.1061,1.1067,1.1073,0,0,0,0,0,0,0,0,0,0,0,0,0,1.055,1.0424,1.0679,1.073,1.0736,1.084,1.0843,1.0845,1.09,1.0899,1.0898,1.0897,1.1059,1.1067,1.1074,1.1139,0,0,1.1097,1.11,0,0,0,0,0,0,0,0,1.0543,1.056,1.072,1.0727,1.0734,1.0849,1.0811,1.0944,1.09,1.0838,1.0898,1.0897,1.0993,1.1006,1.1038,1.1147,1.1154,1.1097,1.1102,1.1105,1.1107,0,0,0,0,0,0,0,1.0534,1.0553,1.0743,1.0723,1.0731,1.0744,1.0762,1.0836,1.0919,1.0843,1.0848,1.0866,1.0996,1.103,1.1042,1.1156,1.1097,1.1104,1.1109,1.1111,1.1326,1.1327,0,0,0,0,0,0,1.0516,1.0545,1.0738,1.0748,1.0634,1.075,1.077,1.0813,1.0918,1.0933,1.0867,1.0868,1.1018,1.1033,1.1048,1.1131,1.1105,1.1112,1.1116,1.1325,1.1326,1.1328,0,0,0,0,0,0,1.051,1.0533,1.0732,1.0648,1.0674,1.0755,1.0804,1.0817,1.0851,1.0936,1.095,1.0887,1.1018,1.1038,1.1116,1.1137,1.1116,1.1122,1.1323,1.1325,1.1327,1.1297,0,0,0,0,0,0,1.0502,1.053,1.0556,1.0648,1.0679,1.0797,1.0805,1.0821,1.0864,1.0867,1.0959,1.0973,1.1019,1.1104,1.1123,1.1147,1.1128,1.1322,1.1324,1.1326,1.1296,1.1298,1.1299,0,0,0,0,0,1.0493,1.0541,1.0557,1.058,1.0713,1.0798,1.0815,1.0868,1.0866,1.0892,1.0946,1.097,1.1132,1.1112,1.1134,1.116,1.1321,1.1324,1.1326,1.1296,1.1297,1.1299,0,0,0,0,0,0,1.045,1.0554,1.0573,1.0653,1.0716,1.0807,1.0842,1.0868,1.0933,1.0933,1.0995,1.1015,1.1088,1.1132,1.1108,1.1228,1.1228,1.1235,1.1197,1.1199,1.12,1.1188,1.1134,0,0,0,0,0,1.0449,1.051,1.0598,1.066,1.0691,1.0761,1.08,1.0835,1.0903,1.093,1.099,1.1054,1.112,1.1162,1.1227,1.1303,1.1323,1.1332,1.1333,1.1333,1.1339,1.1382,1.1386,1.1337,1.1337,1.1337,0,0,1.0449,1.0514,1.0549,1.0653,1.0706,1.0767,1.0783,1.0847,1.0893,1.094,1.1017,1.1063,1.114,1.1217,1.1254,1.1256,1.1357,1.1337,1.1336,1.1342,1.1385,1.139,1.1394,1.1339,1.1338,1.1338,0,0,1.0481,1.0536,1.0593,1.0646,1.0727,1.0773,1.0786,1.0874,1.0906,1.0985,1.102,1.1076,1.1188,1.1241,1.1282,1.1332,1.1357,1.1352,1.1357,1.1398,1.1402,1.1406,1.1424,1.143,1.1357,1.1357,1.1357,0,1.0471,1.0565,1.062,1.0682,1.0727,1.0771,1.0829,1.0878,1.0975,1.1004,1.1005,1.1146,1.1201,1.129,1.1302,1.1335,1.1352,1.1342,1.1397,1.1402,1.1406,1.1424,1.143,1.1356,1.1356,1.1356,1.1356,0,1.0548,1.0613,1.065,1.0742,1.0791,1.0851,1.0914,1.0957,1.0987,1.1032,1.1112,1.1179,1.1258,1.1282,1.1312,1.1376,1.1374,1.1385,1.1386,1.1409,1.1426,1.1434,1.1354,1.1355,1.1355,1.1355,0,0,1.0558,1.068,1.0692,1.0734,1.0826,1.0877,1.0938,1.1016,1.1051,1.1116,1.1169,1.1262,1.1272,1.1319,1.1356,1.1392,1.1427,1.1399,1.1401,1.1401,1.1501,1.1492,1.1499,1.1443,1.1445,1.1446,1.1495,0,1.0601,1.0714,1.0764,1.0854,1.0914,1.0956,1.101,1.1071,1.1116,1.1173,1.1221,1.1286,1.1295,1.1324,1.1361,1.1415,1.1448,1.1412,1.1493,1.1495,1.1472,1.1508,1.15,1.1542,1.1502,1.1503,1.1504,0,1.0667,1.0732,1.0828,1.0911,1.0939,1.0986,1.106,1.1115,1.1185,1.1214,1.1266,1.1301,1.1367,1.1362,1.1453,1.1428,1.1464,1.1495,1.1498,1.1508,1.1501,1.1519,1.1557,1.1563,1.1515,1.1514,1.1514,0,1.0664,1.0776,1.0847,1.0882,1.0982,1.1014,1.1057,1.1126,1.1169,1.1234,1.1263,1.1334,1.1373,1.1428,1.1481,1.1473,1.1567,1.1567,1.1593,1.1592,1.1611,1.1609,1.1656,1.1634,1.1634,1.1634,1.1634,0,1.0707,1.0764,1.0847,1.0891,1.0955,1.1013,1.1075,1.1121,1.1182,1.1235,1.1276,1.1325,1.1392,1.1449,1.1491,1.156,1.1577,1.1603,1.1613,1.1599,1.1596,1.1624,1.1622,1.1636,1.1635,1.1635,1.1635,0,1.0715,1.0773,1.0854,1.0941,1.0964,1.1008,1.1083,1.1126,1.1172,1.1239,1.1258,1.133,1.1399,1.1457,1.1549,1.1577,1.1648,1.1661,1.1625,1.163,1.1653,1.165,1.1719,1.1731,1.1701,1.1701,1.1701,0,1.0738,1.0783,1.0875,1.0914,1.0956,1.1018,1.1062,1.112,1.1164,1.1247,1.128,1.1353,1.1414,1.1523,1.1583,1.1653,1.1667,1.1687,1.1678,1.1662,1.1667,1.1664,1.1669,1.1687,1.1687,1.1687,1.1687,0,1.0774,1.0801,1.0863,1.0935,1.0986,1.1046,1.1106,1.1136,1.1204,1.1252,1.1323,1.137,1.1463,1.1535,1.1611,1.1655,1.1682,1.1689,1.1699,1.1685,1.1662,1.1675,1.1626,1.1688,1.1688,1.1687,1.1687,1.1687,1.0791,1.0832,1.0903,1.0971,1.1023,1.1078,1.1124,1.1175,1.1236,1.1316,1.1346,1.1419,1.1488,1.1593,1.1637,1.1695,1.1698,1.1712,1.1716,1.1718,1.1716,1.1653,1.1709,1.1709,1.1709,1.1709,1.1709,0,1.0829,1.0876,1.0938,1.1021,1.1074,1.1096,1.1164,1.1206,1.127,1.1332,1.1391,1.1473,1.1542,1.1607,1.1679,1.1713,1.1727,1.173,1.1728,1.1738,1.1709,1.1693,1.1717,1.1717,1.1717,1.1717,1.1717,1.1717,1.0855,1.0926,1.096,1.1057,1.1105,1.1177,1.1213,1.1264,1.1314,1.1404,1.1461,1.1503,1.1566,1.1643,1.1708,1.1725,1.175,1.1749,1.1769,1.1741,1.174,1.1738,1.1724,1.1754,1.1754,1.1793,1.1794,1.1794]},{"header":{"parameterUnit":"m.s-1","parameterCategory":1,"la1":30.2991,"la2":30.254,"lo1":-89.0895,"lo2":-89.0444,"dy":0.0017,"dx":0.0017,"nx":28,"ny":28,"refTime":"2023-07-29T03:00:00:Z","depth":0,"parameterNumber":3,"parameterNumberName":"V-component_of_WINDS"},"data":[0,0,0,0,0,0,0,0,0,0,0,0,0,0,0,0,0,0,0,0,0,0,0,0,0,0,0,0,0,0,0,0,0,0,0,0,0,0,0,0,0,0,0,0,0,0,0,0,0,0,0,0,0,0,0,0,0,0,2.1882,2.1881,0,2.179,2.1789,2.1788,2.1705,2.1704,2.1703,2.1702,2.1605,2.1603,2.1602,0,0,0,0,0,0,0,0,0,0,0,0,0,2.1984,2.1982,2.1882,2.1881,2.188,2.179,2.1789,2.1787,2.1705,2.1704,2.1703,2.1702,2.1606,2.1604,2.1602,0,0,0,0,0,0,0,0,0,0,0,0,0,2.192,2.1982,2.1882,2.1828,2.1822,2.179,2.1789,2.1787,2.1706,2.1704,2.1703,2.1701,2.1606,2.1604,2.1601,2.1615,0,0,2.1594,2.1592,0,0,0,0,0,0,0,0,2.1924,2.1917,2.1837,2.1832,2.1825,2.1758,2.1789,2.1729,2.1706,2.175,2.1702,2.1701,2.1657,2.165,2.1636,2.161,2.1606,2.1593,2.1592,2.1591,2.159,0,0,0,0,0,0,0,2.1929,2.192,2.1845,2.1836,2.1829,2.1807,2.1797,2.1777,2.1712,2.1746,2.174,2.173,2.1653,2.1638,2.1633,2.1604,2.1593,2.1591,2.159,2.1589,2.1584,2.1586,0,0,0,0,0,0,2.1942,2.1924,2.1848,2.1843,2.1872,2.1807,2.1795,2.1781,2.1712,2.1701,2.1731,2.1727,2.1643,2.1636,2.1629,2.1641,2.1591,2.1588,2.1587,2.1583,2.1585,2.1586,0,0,0,0,0,0,2.1944,2.1936,2.1852,2.1882,2.1869,2.1806,2.1791,2.178,2.1765,2.1702,2.1689,2.1728,2.1642,2.1633,2.1619,2.1636,2.1587,2.1585,2.1581,2.1584,2.1586,2.1664,0,0,0,0,0,0,2.1947,2.1937,2.1942,2.1883,2.1868,2.1845,2.1792,2.1779,2.1761,2.1754,2.1696,2.1684,2.164,2.1623,2.1617,2.1632,2.1583,2.158,2.1582,2.1585,2.1659,2.1668,2.1676,0,0,0,0,0,2.1951,2.1967,2.1943,2.1934,2.1874,2.1846,2.1837,2.1787,2.1763,2.1767,2.1726,2.1686,2.1635,2.1623,2.1614,2.1629,2.1578,2.1582,2.1585,2.1656,2.1666,2.1676,0,0,0,0,0,0,2.203,2.1959,2.1931,2.1928,2.1894,2.1832,2.1836,2.18,2.1771,2.1766,2.1703,2.1691,2.1684,2.1655,2.1642,2.1638,2.1601,2.1603,2.1658,2.1668,2.1676,2.1684,2.1581,0,0,0,0,0,2.2047,2.2031,2.1969,2.1973,2.1957,2.19,2.1886,2.185,2.1811,2.1796,2.1754,2.1718,2.1693,2.1678,2.1652,2.1654,2.164,2.166,2.1668,2.1675,2.1678,2.1677,2.1685,2.1597,2.1597,2.1597,0,0,2.2082,2.2041,2.2035,2.1988,2.1957,2.1941,2.1888,2.1874,2.1861,2.1794,2.1779,2.1747,2.1701,2.1696,2.1691,2.1671,2.1699,2.1679,2.1685,2.1684,2.1681,2.1689,2.1697,2.1599,2.1599,2.1598,0,0,2.2138,2.2106,2.2105,2.2076,2.203,2.1992,2.1992,2.1935,2.1912,2.1896,2.1845,2.1828,2.1787,2.1757,2.1737,2.1781,2.1744,2.1774,2.1818,2.1818,2.1825,2.183,2.1847,2.1854,2.1777,2.1777,2.1777,0,2.2188,2.2163,2.2109,2.2099,2.2079,2.2018,2.2016,2.199,2.1938,2.1925,2.1903,2.1851,2.1816,2.1803,2.1814,2.1799,2.1797,2.1781,2.1828,2.1833,2.1838,2.1853,2.1859,2.1781,2.1781,2.178,2.178,0,2.2226,2.221,2.2215,2.2168,2.2148,2.2142,2.2087,2.2074,2.2039,2.2003,2.1987,2.1943,2.1907,2.1901,2.1867,2.1883,2.1872,2.184,2.1802,2.1852,2.1865,2.187,2.1787,2.1785,2.1784,2.1783,0,0,2.2331,2.2253,2.2256,2.2234,2.2179,2.2165,2.2155,2.2121,2.2111,2.2077,2.2068,2.2034,2.2005,2.1981,2.1943,2.1942,2.1981,2.191,2.1908,2.1926,2.1997,2.2022,2.203,2.1955,2.1956,2.1957,2.2001,0,2.2379,2.236,2.2311,2.2307,2.2292,2.2232,2.2224,2.2189,2.2154,2.2135,2.2096,2.2074,2.2036,2.2022,2.2018,2.1977,2.1995,2.1973,2.1946,2.1946,2.1961,2.2036,2.2063,2.2107,2.2005,2.2006,2.2007,0,2.2433,2.2403,2.2399,2.2344,2.2336,2.233,2.2294,2.2277,2.2235,2.221,2.2184,2.2142,2.2128,2.2092,2.2072,2.2058,2.2044,2.2022,2.2022,2.2019,2.1981,2.2036,2.212,2.2127,2.2014,2.2014,2.2013,0,2.2511,2.247,2.2462,2.2444,2.238,2.2377,2.235,2.2307,2.229,2.2259,2.2247,2.2214,2.2196,2.2171,2.212,2.2099,2.2106,2.2066,2.2085,2.2086,2.209,2.2091,2.2174,2.2079,2.2079,2.2079,2.2078,0,2.257,2.257,2.2496,2.2491,2.2489,2.2431,2.243,2.2397,2.2359,2.2347,2.2292,2.2281,2.2214,2.2195,2.2155,2.2145,2.2137,2.2116,2.2106,2.2122,2.2125,2.2112,2.2108,2.208,2.208,2.208,2.2079,0,2.2658,2.2608,2.2596,2.2536,2.2521,2.2522,2.2471,2.2463,2.2425,2.241,2.2403,2.2343,2.2317,2.2264,2.2224,2.2197,2.2196,2.2177,2.2211,2.2205,2.2227,2.2227,2.2306,2.2314,2.2214,2.2215,2.2216,0,2.27,2.2699,2.2639,2.2627,2.2603,2.2584,2.2566,2.2509,2.2493,2.2445,2.2444,2.2414,2.2388,2.235,2.2302,2.2271,2.2251,2.2281,2.2246,2.2262,2.2252,2.2254,2.2254,2.2289,2.2291,2.2292,2.2293,0,2.2781,2.2756,2.2733,2.2702,2.2683,2.2655,2.2624,2.2617,2.2552,2.2536,2.251,2.249,2.2449,2.242,2.2382,2.2353,2.2312,2.2304,2.2307,2.2324,2.2345,2.2335,2.2234,2.2303,2.2302,2.2301,2.23,2.23,2.2847,2.2843,2.2801,2.2777,2.2748,2.2721,2.2711,2.2672,2.265,2.2613,2.258,2.2557,2.2515,2.2459,2.2433,2.2413,2.2393,2.2397,2.2398,2.2401,2.2408,2.2347,2.2406,2.2405,2.2405,2.2405,2.2404,0,2.2926,2.2896,2.2874,2.2834,2.2815,2.2778,2.2742,2.2729,2.271,2.2674,2.2649,2.2619,2.2591,2.2541,2.2509,2.2503,2.2483,2.2496,2.2497,2.2491,2.2427,2.2429,2.2513,2.2513,2.2513,2.2513,2.2513,2.2513,2.2965,2.2956,2.2927,2.2903,2.2872,2.2851,2.2833,2.2807,2.2779,2.2748,2.2725,2.2693,2.2651,2.2615,2.2587,2.2573,2.2564,2.2583,2.2563,2.2505,2.2495,2.2486,2.2487,2.2581,2.2582,2.2629,2.2629,2.2629]}]]